TimeMST,TemperatureF,Dew PointF,Humidity,Sea Level PressureIn,VisibilityMPH,Wind Direction,Wind SpeedMPH,Gust SpeedMPH,PrecipitationIn,Events,Conditions,WindDirDegrees,DateUTC
12:53 AM,19.0,15.1,85,30.60,7.0,Calm,Calm,-,N/A,,Clear,0,2013-03-02 07:53:00
1:53 AM,17.6,14.0,86,30.48,10.0,Calm,Calm,-,N/A,,Clear,0,2013-03-02 08:53:00
2:53 AM,12.9,8.1,81,30.63,10.0,Calm,Calm,-,N/A,,Partly Cloudy,0,2013-03-02 09:53:00
3:09 AM,15.8,12.2,86,30.47,2.5,Calm,Calm,-,N/A,,Mostly Cloudy,0,2013-03-02 10:09:00
3:13 AM,14.0,12.2,93,30.47,1.0,Calm,Calm,-,N/A,,Mist,0,2013-03-02 10:13:00
3:20 AM,15.8,10.4,79,30.47,0.2,Calm,Calm,-,N/A,Fog,Light Freezing Fog,0,2013-03-02 10:20:00
3:30 AM,14.0,10.4,86,30.47,1.2,Calm,Calm,-,N/A,,Scattered Clouds,0,2013-03-02 10:30:00
3:33 AM,14.0,10.4,86,30.47,3.0,SSW,3.5,-,N/A,,Scattered Clouds,200,2013-03-02 10:33:00
3:49 AM,12.2,10.4,92,30.46,1.5,Calm,Calm,-,N/A,,Clear,0,2013-03-02 10:49:00
3:51 AM,12.2,10.4,92,30.46,0.8,Calm,Calm,-,N/A,,Mist,0,2013-03-02 10:51:00
3:53 AM,12.9,10.0,88,30.61,0.8,Calm,Calm,-,N/A,,Mist,0,2013-03-02 10:53:00
3:59 AM,10.4,8.6,92,30.47,1.2,Calm,Calm,-,N/A,,Partly Cloudy,0,2013-03-02 10:59:00
4:01 AM,10.4,6.8,85,30.47,3.0,Calm,Calm,-,N/A,,Partly Cloudy,0,2013-03-02 11:01:00
4:30 AM,12.2,8.6,85,30.48,1.8,SE,3.5,-,N/A,,Scattered Clouds,130,2013-03-02 11:30:00
4:33 AM,12.2,8.6,85,30.48,0.8,Calm,Calm,-,N/A,,Mist,0,2013-03-02 11:33:00
4:53 AM,12.2,10.4,92,30.48,0.5,Calm,Calm,-,N/A,Fog,Light Freezing Fog,0,2013-03-02 11:53:00
5:53 AM,12.9,8.1,81,30.65,0.2,Calm,Calm,-,N/A,,Haze,0,2013-03-02 12:53:00
6:53 AM,15.1,9.0,77,30.64,0.2,Calm,Calm,-,N/A,,Haze,0,2013-03-02 13:53:00
7:53 AM,17.6,12.2,79,30.49,0.2,Calm,Calm,-,N/A,,Haze,0,2013-03-02 14:53:00
8:53 AM,23.0,17.1,78,30.61,0.2,Calm,Calm,-,N/A,,Haze,0,2013-03-02 15:53:00
9:50 AM,28.4,17.6,64,30.48,1.2,Calm,Calm,-,N/A,,Haze,0,2013-03-02 16:50:00
9:53 AM,28.9,17.1,61,30.60,2.0,Calm,Calm,-,N/A,,Haze,0,2013-03-02 16:53:00
9:59 AM,28.4,17.6,64,30.48,6.0,Calm,Calm,-,N/A,,Haze,0,2013-03-02 16:59:00
10:53 AM,28.0,19.0,69,30.59,10.0,Calm,Calm,-,N/A,,Clear,0,2013-03-02 17:53:00
11:53 AM,28.9,21.0,72,30.56,10.0,Calm,Calm,-,N/A,,Clear,0,2013-03-02 18:53:00
12:53 PM,33.1,24.1,70,30.53,10.0,Calm,Calm,-,N/A,,Clear,0,2013-03-02 19:53:00
1:53 PM,42.1,24.1,49,30.45,10.0,ENE,8.1,-,N/A,,Clear,70,2013-03-02 20:53:00
2:53 PM,42.1,24.1,49,30.44,10.0,ENE,6.9,-,N/A,,Clear,70,2013-03-02 21:53:00
3:53 PM,42.1,24.1,49,30.42,10.0,ENE,8.1,-,N/A,,Clear,60,2013-03-02 22:53:00
4:53 PM,39.9,24.1,53,30.40,10.0,East,4.6,-,N/A,,Clear,80,2013-03-02 23:53:00
5:53 PM,39.2,23.0,52,30.27,10.0,Variable,6.9,-,N/A,,Clear,0,2013-03-03 00:53:00
6:53 PM,34.0,24.1,67,30.40,10.0,Calm,Calm,-,N/A,,Clear,0,2013-03-03 01:53:00
7:53 PM,33.1,23.0,66,30.36,10.0,Calm,Calm,-,N/A,,Clear,0,2013-03-03 02:53:00
8:53 PM,28.9,21.9,75,30.34,10.0,Calm,Calm,-,N/A,,Clear,0,2013-03-03 03:53:00
9:53 PM,24.1,18.0,77,30.30,10.0,West,4.6,-,N/A,,Clear,270,2013-03-03 04:53:00
10:53 PM,26.1,19.0,75,30.29,10.0,SW,4.6,-,N/A,,Clear,220,2013-03-03 05:53:00
11:53 PM,26.1,19.0,75,30.25,10.0,Calm,Calm,-,N/A,,Clear,0,2013-03-03 06:53:00